Weather History for Tehachapi, CA

Change the Weather History Date:

Saturday, January 19, 2013

  Actual Average Record
Temperature  
Mean Temperature 50 °F -  
Max Temperature 59 °F 53 °F 64 °F (2014)
Min Temperature 41 °F 32 °F 32 °F (2014)
Degree Days  
Heating Degree Days 15    
Moisture  
Dew Point 3 °F    
Average Humidity 16    
Maximum Humidity 21    
Minimum Humidity 10    
Precipitation  
Precipitation 0.00 in - - ()
Sea Level Pressure  
Sea Level Pressure 30.27 in    
Wind  
Wind Speed 14 mph (ESE)    
Max Wind Speed 21 mph    
Max Gust Speed 28 mph    
Visibility 10 miles    
Events      
Averages and records for this station are not official NWS values.
T = Trace of Precipitation, MM = Missing Value Source: NWS Daily Summary

Daily Weather History Graph

Daily Weather History Graph

Search for Another Location

Airport:

Trip Planner

Search our weather history database for the weather conditions in past years. The results will help you decide how hot, cold, wet, or windy it might be!

Date:

Astronomy

Jan. 19, 2013 Rise Set
Actual Time 7:00 AM PST 5:09 PM PST
Civil Twilight 6:32 AM PST 5:36 PM PST
Nautical Twilight 6:01 AM PST 6:07 PM PST
Astronomical Twilight 5:31 AM PST 6:38 PM PST
Moon 11:35 AM PST (1/19) 12:42 AM PST (1/19)
Length of Visible Light 11h 03m
Length of Day
10h 09m
First Quarter, 58% of the Moon is Illuminated
Jan 19
First Quarter
Jan 26
Full
Feb 3
Last Quarter
Feb 9
New
Feb 17
First Quarter

Hourly Weather History & Observations

Time (PST) Temp. Windchill Dew Point Humidity Pressure Visibility Wind Dir Wind Speed Gust Speed Precip Events Conditions
12:15 AM 44.6 °F 38.4 °F 5.0 °F 20% 30.25 in 10.0 mi East 12.7 mph 17.3 mph N/A   Clear
12:35 AM 42.8 °F 35.8 °F 5.0 °F 21% 30.25 in 10.0 mi East 13.8 mph 17.3 mph N/A   Clear
12:55 AM 42.8 °F 36.2 °F 5.0 °F 21% 30.25 in 10.0 mi East 12.7 mph 18.4 mph N/A   Clear
1:15 AM 44.6 °F 38.1 °F 5.0 °F 20% 30.25 in 10.0 mi ESE 13.8 mph 18.4 mph N/A   Clear
1:35 AM 44.6 °F 38.1 °F 5.0 °F 20% 30.25 in 10.0 mi ESE 13.8 mph - N/A   Clear
1:55 AM 44.6 °F 37.4 °F 3.2 °F 18% 30.25 in 10.0 mi ESE 16.1 mph 21.9 mph N/A   Clear
2:15 AM 44.6 °F 38.1 °F 3.2 °F 18% 30.25 in 10.0 mi East 13.8 mph 19.6 mph N/A   Clear
2:35 AM 44.6 °F 37.8 °F 3.2 °F 18% 30.26 in 10.0 mi East 15.0 mph 20.7 mph N/A   Clear
2:55 AM 44.6 °F 37.4 °F 3.2 °F 18% 30.26 in 10.0 mi ESE 16.1 mph 20.7 mph N/A   Clear
3:15 AM 42.8 °F 36.6 °F 3.2 °F 19% 30.26 in 10.0 mi East 11.5 mph 23.0 mph N/A   Clear
3:35 AM 42.8 °F 36.2 °F 5.0 °F 21% 30.26 in 10.0 mi East 12.7 mph 20.7 mph N/A   Clear
4:55 AM 42.8 °F 36.6 °F 3.2 °F 19% 30.26 in 10.0 mi East 11.5 mph 19.6 mph N/A   Clear
5:15 AM 41.0 °F 34.3 °F 3.2 °F 21% 30.26 in 10.0 mi East 11.5 mph 16.1 mph N/A   Clear
5:55 AM 41.0 °F 33.9 °F 3.2 °F 21% 30.27 in 10.0 mi East 12.7 mph - N/A   Clear
6:15 AM 41.0 °F 34.3 °F 3.2 °F 21% 30.27 in 10.0 mi East 11.5 mph - N/A   Clear
6:35 AM 41.0 °F 34.7 °F 3.2 °F 21% 30.28 in 10.0 mi East 10.4 mph - N/A   Clear
7:35 AM 41.0 °F 33.5 °F 3.2 °F 21% 30.29 in 10.0 mi ESE 13.8 mph 18.4 mph N/A   Clear
7:55 AM 44.6 °F 38.8 °F 5.0 °F 20% 30.30 in 10.0 mi ESE 11.5 mph - N/A   Clear
8:15 AM 46.4 °F 40.1 °F 5.0 °F 18% 30.30 in 9.0 mi ESE 15.0 mph 19.6 mph N/A   Clear
8:35 AM 48.2 °F - 5.0 °F 17% 30.31 in 10.0 mi ESE 15.0 mph - N/A   Clear
8:55 AM 50.0 °F - 3.2 °F 15% 30.31 in 10.0 mi ESE 17.3 mph 23.0 mph N/A   Clear
9:15 AM 51.8 °F - 3.2 °F 14% 30.32 in 10.0 mi SE 18.4 mph 24.2 mph N/A   Clear
9:35 AM 51.8 °F - 3.2 °F 14% 30.33 in 10.0 mi SE 19.6 mph 26.5 mph N/A   Clear
9:55 AM 53.6 °F - 3.2 °F 13% 30.33 in 9.0 mi SE 18.4 mph 25.3 mph N/A   Clear
10:15 AM 53.6 °F - 1.4 °F 12% 30.33 in 9.0 mi SE 20.7 mph 26.5 mph N/A   Clear
10:35 AM 53.6 °F - 1.4 °F 12% 30.32 in 8.0 mi SE 20.7 mph 27.6 mph N/A   Clear
10:55 AM 55.4 °F - 1.4 °F 11% 30.31 in 9.0 mi ESE 18.4 mph 24.2 mph N/A   Clear
11:55 AM 57.2 °F - 3.2 °F 11% 30.28 in 9.0 mi SE 17.3 mph 25.3 mph N/A   Clear
12:15 PM 57.2 °F - 1.4 °F 10% 30.27 in 10.0 mi SE 19.6 mph 24.2 mph N/A   Clear
12:35 PM 57.2 °F - 1.4 °F 10% 30.26 in 10.0 mi SE 18.4 mph 26.5 mph N/A   Clear
12:55 PM 57.2 °F - 1.4 °F 10% 30.25 in 10.0 mi SE 16.1 mph 27.6 mph N/A   Clear
1:15 PM 57.2 °F - 1.4 °F 10% 30.25 in 9.0 mi SE 19.6 mph 27.6 mph N/A   Clear
1:35 PM 57.2 °F - 1.4 °F 10% 30.25 in 10.0 mi SE 17.3 mph 26.5 mph N/A   Clear
1:55 PM 59.0 °F - 1.4 °F 10% 30.24 in 10.0 mi SE 16.1 mph 24.2 mph N/A   Clear
2:15 PM 57.2 °F - -0.4 °F 10% 30.24 in 10.0 mi SE 19.6 mph 26.5 mph N/A   Clear
2:35 PM 57.2 °F - -0.4 °F 10% 30.24 in 10.0 mi SE 16.1 mph 24.2 mph N/A   Clear
2:55 PM 57.2 °F - -0.4 °F 10% 30.24 in 10.0 mi SE 17.3 mph 24.2 mph N/A   Clear
3:15 PM 57.2 °F - 1.4 °F 10% 30.23 in 10.0 mi SE 18.4 mph 21.9 mph N/A   Clear
3:35 PM 57.2 °F - 1.4 °F 10% 30.23 in 10.0 mi SE 17.3 mph 20.7 mph N/A   Clear
3:55 PM 55.4 °F - 1.4 °F 11% 30.24 in 10.0 mi SE 17.3 mph 24.2 mph N/A   Clear
4:15 PM 55.4 °F - 1.4 °F 11% 30.24 in 10.0 mi SE 16.1 mph 20.7 mph N/A   Clear
4:35 PM 53.6 °F - 1.4 °F 12% 30.24 in 10.0 mi SE 13.8 mph - N/A   Clear
4:55 PM 50.0 °F - 3.2 °F 15% 30.24 in 10.0 mi SE 9.2 mph - N/A   Clear
5:15 PM 46.4 °F 41.5 °F 3.2 °F 17% 30.25 in 10.0 mi East 10.4 mph - N/A   Clear
5:35 PM 46.4 °F 41.9 °F 3.2 °F 17% 30.25 in 10.0 mi East 9.2 mph - N/A   Clear
5:55 PM 48.2 °F - 1.4 °F 15% 30.25 in 10.0 mi East 9.2 mph - N/A   Clear
6:15 PM 46.4 °F 41.5 °F 3.2 °F 17% 30.26 in 10.0 mi ESE 10.4 mph - N/A   Clear
6:35 PM 46.4 °F 41.9 °F 1.4 °F 16% 30.26 in 10.0 mi East 9.2 mph - N/A   Clear
6:55 PM 46.4 °F 41.9 °F 1.4 °F 16% 30.26 in 10.0 mi East 9.2 mph - N/A   Clear
7:15 PM 46.4 °F 41.9 °F 1.4 °F 16% 30.27 in 10.0 mi East 9.2 mph - N/A   Clear
7:35 PM 46.4 °F 41.1 °F 1.4 °F 16% 30.27 in 10.0 mi East 11.5 mph - N/A   Clear
7:55 PM 46.4 °F 41.5 °F 1.4 °F 16% 30.27 in 10.0 mi ESE 10.4 mph - N/A   Clear
8:15 PM 46.4 °F 41.1 °F 1.4 °F 16% 30.27 in 10.0 mi ESE 11.5 mph - N/A   Clear
8:35 PM 42.8 °F 36.2 °F 3.2 °F 19% 30.27 in 10.0 mi ESE 12.7 mph - N/A   Clear
8:55 PM 42.8 °F 37.0 °F 3.2 °F 19% 30.28 in 10.0 mi ESE 10.4 mph 17.3 mph N/A   Clear
9:15 PM 42.8 °F 36.6 °F 3.2 °F 19% 30.28 in 10.0 mi East 11.5 mph - N/A   Clear
9:35 PM 42.8 °F 37.0 °F 3.2 °F 19% 30.28 in 10.0 mi ESE 10.4 mph - N/A   Clear
9:55 PM 42.8 °F 37.0 °F 3.2 °F 19% 30.28 in 10.0 mi East 10.4 mph - N/A   Clear
10:15 PM 44.6 °F 39.2 °F 3.2 °F 18% 30.28 in 10.0 mi East 10.4 mph - N/A   Clear
10:35 PM 44.6 °F 39.2 °F 3.2 °F 18% 30.29 in 10.0 mi ESE 10.4 mph - N/A   Clear
10:55 PM 44.6 °F 39.7 °F 3.2 °F 18% 30.29 in 10.0 mi East 9.2 mph - N/A   Clear
11:15 PM 42.8 °F 37.0 °F 5.0 °F 21% 30.28 in 10.0 mi East 10.4 mph - N/A   Clear
11:35 PM 42.8 °F 36.6 °F 5.0 °F 21% 30.28 in 10.0 mi East 11.5 mph - N/A   Clear
11:55 PM 42.8 °F 37.0 °F 3.2 °F 19% 30.28 in 10.0 mi ESE 10.4 mph - N/A   Clear